| time (UTC) | temp F | wind direction | speed MPH | gust MPH | rain 1hr in | rain 24hr in | rain mn in | humidity % | barometer mb |
| 20260904212013 | 67 | 129 | 0.0 | 0.0 | 0.00 | 0.00 | 0.00 | 66 | 1019.7 |
| 20260904211514 | 67 | 146 | 0.0 | 0.0 | 0.00 | 0.00 | 0.00 | 66 | 1019.8 |
| 20260904211011 | 68 | 146 | 0.0 | 4.0 | 0.00 | 0.00 | 0.00 | 65 | 1019.7 |
| 20260904210511 | 68 | 146 | 0.0 | 4.0 | 0.00 | 0.00 | 0.00 | 65 | 1019.7 |
| 20260904210016 | 68 | 171 | 1.0 | 4.0 | 0.00 | 0.00 | 0.00 | 65 | 1019.6 |
| 20260904205511 | 68 | 318 | 0.0 | 0.0 | 0.00 | 0.00 | 0.00 | 64 | 1019.6 |
| 20260904205011 | 68 | 318 | 0.0 | 0.0 | 0.00 | 0.00 | 0.00 | 64 | 1019.6 |
| 20260904204510 | 68 | 318 | 0.0 | 3.0 | 0.00 | 0.00 | 0.00 | 64 | 1019.6 |
| 20260904204014 | 68 | 318 | 1.0 | 3.0 | 0.00 | 0.00 | 0.00 | 64 | 1019.6 |
| 20260904203510 | 69 | 141 | 0.0 | 4.0 | 0.00 | 0.00 | 0.00 | 62 | 1019.6 |
| 20260904203010 | 69 | 273 | 1.0 | 4.0 | 0.00 | 0.00 | 0.00 | 61 | 1019.6 |
| 20260904202509 | 69 | 167 | 1.0 | 3.0 | 0.00 | 0.00 | 0.00 | 61 | 1019.5 |
| 20260904202012 | 69 | 167 | 0.0 | 2.0 | 0.00 | 0.00 | 0.00 | 61 | 1019.6 |
| 20260904201509 | 70 | 167 | 0.0 | 3.0 | 0.00 | 0.00 | 0.00 | 61 | 1019.6 |
| 20260904201009 | 70 | 167 | 1.0 | 3.0 | 0.00 | 0.00 | 0.00 | 61 | 1019.6 |
| 20260904200509 | 70 | 167 | 0.0 | 3.0 | 0.00 | 0.00 | 0.00 | 61 | 1019.5 |
| 20260904200009 | 70 | 167 | 0.0 | 2.0 | 0.00 | 0.00 | 0.00 | 61 | 1019.4 |
| 20260904195513 | 70 | 167 | 0.0 | 0.0 | 0.00 | 0.00 | 0.00 | 61 | 1019.4 |
| 20260904195010 | 70 | 167 | 0.0 | 0.0 | 0.00 | 0.00 | 0.00 | 60 | 1019.4 |
| 20260904194510 | 71 | 167 | 0.0 | 0.0 | 0.00 | 0.00 | 0.00 | 59 | 1019.3 |
| 20260904194008 | 71 | 167 | 0.0 | 0.0 | 0.00 | 0.00 | 0.00 | 58 | 1019.4 |
| 20260904193508 | 71 | 167 | 0.0 | 0.0 | 0.00 | 0.00 | 0.00 | 58 | 1019.3 |
| 20260904193008 | 71 | 167 | 0.0 | 0.0 | 0.00 | 0.00 | 0.00 | 59 | 1019.3 |
| 20260904192507 | 71 | 167 | 0.0 | 0.0 | 0.00 | 0.00 | 0.00 | 58 | 1019.3 |
| 20260904192010 | 72 | 167 | 0.0 | 0.0 | 0.00 | 0.00 | 0.00 | 58 | 1019.2 |
| 20260904191507 | 72 | 167 | 0.0 | 0.0 | 0.00 | 0.00 | 0.00 | 57 | 1019.2 |
| 20260904191006 | 72 | 167 | 0.0 | 0.0 | 0.00 | 0.00 | 0.00 | 57 | 1019.0 |
| 20260904190507 | 72 | 167 | 0.0 | 0.0 | 0.00 | 0.00 | 0.00 | 56 | 1019.0 |
| 20260904190006 | 73 | 167 | 0.0 | 0.0 | 0.00 | 0.00 | 0.00 | 56 | 1018.9 |
| 20260904185506 | 73 | 167 | 0.0 | 0.0 | 0.00 | 0.00 | 0.00 | 55 | 1018.8 |
| 20260904185006 | 73 | 167 | 0.0 | 0.0 | 0.00 | 0.00 | 0.00 | 55 | 1018.8 |
| 20260904184506 | 73 | 167 | 0.0 | 3.0 | 0.00 | 0.00 | 0.00 | 55 | 1018.7 |
| 20260904184006 | 74 | 167 | 0.0 | 3.0 | 0.00 | 0.00 | 0.00 | 55 | 1018.7 |
| 20260904183508 | 74 | 167 | 1.0 | 3.0 | 0.00 | 0.00 | 0.00 | 53 | 1018.5 |
| 20260904183006 | 74 | 167 | 0.0 | 4.0 | 0.00 | 0.00 | 0.00 | 53 | 1018.5 |
| 20260904182505 | 75 | 167 | 1.0 | 4.0 | 0.00 | 0.00 | 0.00 | 51 | 1018.3 |
| 20260904182004 | 74 | 198 | 0.0 | 3.0 | 0.00 | 0.00 | 0.00 | 51 | 1018.3 |
| 20260904181504 | 75 | 293 | 0.0 | 0.0 | 0.00 | 0.00 | 0.00 | 53 | 1018.2 |
| 20260904181004 | 76 | 293 | 0.0 | 0.0 | 0.00 | 0.00 | 0.00 | 52 | 1018.2 |
| 20260904180504 | 77 | 293 | 0.0 | 0.0 | 0.00 | 0.00 | 0.00 | 50 | 1018.1 |
| 20260904180004 | 77 | 293 | 0.0 | 0.0 | 0.00 | 0.00 | 0.00 | 47 | 1017.9 |
| 20260904175503 | 78 | 293 | 0.0 | 0.0 | 0.00 | 0.00 | 0.00 | 45 | 1017.8 |
| 20260904175006 | 78 | 293 | 0.0 | 2.0 | 0.00 | 0.00 | 0.00 | 46 | 1017.7 |
| 20260904174503 | 79 | 293 | 0.0 | 2.0 | 0.00 | 0.00 | 0.00 | 44 | 1017.7 |
| 20260904174003 | 79 | 293 | 0.0 | 0.0 | 0.00 | 0.00 | 0.00 | 43 | 1017.6 |
| 20260904173505 | 79 | 293 | 0.0 | 2.0 | 0.00 | 0.00 | 0.00 | 44 | 1017.6 |
| 20260904172532 | 79 | 293 | 0.0 | 4.0 | 0.00 | 0.00 | 0.00 | 43 | 1017.5 |
| 20260904172029 | 79 | 298 | 0.0 | 4.0 | 0.00 | 0.00 | 0.00 | 44 | 1017.5 |
| 20260904171530 | 79 | 293 | 0.0 | 3.0 | 0.00 | 0.00 | 0.00 | 44 | 1017.5 |
| 20260904171029 | 79 | 287 | 0.0 | 2.0 | 0.00 | 0.00 | 0.00 | 44 | 1017.5 |
| 20260904170529 | 80 | 282 | 0.0 | 3.0 | 0.00 | 0.00 | 0.00 | 44 | 1017.4 |
| 20260904170036 | 80 | 309 | 0.0 | 3.0 | 0.00 | 0.00 | 0.00 | 43 | 1017.4 |
| 20260904165531 | 79 | 112 | 1.0 | 4.0 | 0.00 | 0.00 | 0.00 | 44 | 1017.4 |
| 20260904165029 | 79 | 67 | 0.0 | 4.0 | 0.00 | 0.00 | 0.00 | 44 | 1017.4 |
| 20260904164529 | 79 | 250 | 0.0 | 4.0 | 0.00 | 0.00 | 0.00 | 42 | 1017.4 |
| 20260904164027 | 79 | 124 | 0.0 | 3.0 | 0.00 | 0.00 | 0.00 | 41 | 1017.5 |
| 20260904163527 | 80 | 230 | 0.0 | 3.0 | 0.00 | 0.00 | 0.00 | 41 | 1017.5 |
| 20260904163027 | 80 | 241 | 0.0 | 3.0 | 0.00 | 0.00 | 0.00 | 40 | 1017.5 |
| 20260904162527 | 80 | 215 | 0.0 | 3.0 | 0.00 | 0.00 | 0.00 | 40 | 1017.5 |
| 20260904162026 | 80 | 199 | 0.0 | 4.0 | 0.00 | 0.00 | 0.00 | 41 | 1017.5 |
| 20260904161527 | 80 | 263 | 1.0 | 3.0 | 0.00 | 0.00 | 0.00 | 40 | 1017.5 |
| 20260904161030 | 80 | 299 | 0.0 | 4.0 | 0.00 | 0.00 | 0.00 | 40 | 1017.5 |
| 20260904160526 | 80 | 263 | 0.0 | 4.0 | 0.00 | 0.00 | 0.00 | 40 | 1017.5 |
| 20260904160031 | 80 | 238 | 0.0 | 3.0 | 0.00 | 0.00 | 0.00 | 39 | 1017.6 |
| 20260904155525 | 80 | 284 | 0.0 | 4.0 | 0.00 | 0.00 | 0.00 | 40 | 1017.6 |
| 20260904155025 | 81 | 260 | 0.0 | 7.0 | 0.00 | 0.00 | 0.00 | 40 | 1017.7 |
| 20260904154525 | 81 | 135 | 2.0 | 5.0 | 0.00 | 0.00 | 0.00 | 38 | 1017.7 |
| 20260904154025 | 81 | 280 | 0.0 | 6.0 | 0.00 | 0.00 | 0.00 | 39 | 1017.6 |
| 20260904153525 | 82 | 249 | 2.0 | 6.0 | 0.00 | 0.00 | 0.00 | 38 | 1017.7 |
| 20260904153024 | 82 | 290 | 1.0 | 5.0 | 0.00 | 0.00 | 0.00 | 37 | 1017.7 |
| 20260904152522 | 82 | 309 | 0.0 | 5.0 | 0.00 | 0.00 | 0.00 | 35 | 1017.8 |
| 20260904152022 | 83 | 219 | 2.0 | 5.0 | 0.00 | 0.00 | 0.00 | 35 | 1017.9 |
| 20260904151521 | 83 | 282 | 0.0 | 3.0 | 0.00 | 0.00 | 0.00 | 35 | 1017.9 |
| 20260904151021 | 83 | 289 | 0.0 | 3.0 | 0.00 | 0.00 | 0.00 | 35 | 1017.9 |
| 20260904150521 | 83 | 259 | 1.0 | 4.0 | 0.00 | 0.00 | 0.00 | 37 | 1017.9 |
| 20260904150020 | 84 | 219 | 0.0 | 3.0 | 0.00 | 0.00 | 0.00 | 36 | 1017.9 |
| 20260904145520 | 84 | 314 | 0.0 | 2.0 | 0.00 | 0.00 | 0.00 | 34 | 1018.1 |
| 20260904145020 | 85 | 314 | 0.0 | 1.0 | 0.00 | 0.00 | 0.00 | 36 | 1018.1 |
| 20260904144518 | 85 | 314 | 0.0 | 2.0 | 0.00 | 0.00 | 0.00 | 36 | 1018.2 |
| 20260904144018 | 86 | 314 | 0.0 | 2.0 | 0.00 | 0.00 | 0.00 | 35 | 1018.2 |
| 20260904143517 | 86 | 314 | 0.0 | 2.0 | 0.00 | 0.00 | 0.00 | 35 | 1018.3 |
| 20260904143024 | 87 | 314 | 0.0 | 2.0 | 0.00 | 0.00 | 0.00 | 34 | 1018.4 |
| 20260904142517 | 87 | 314 | 0.0 | 1.0 | 0.00 | 0.00 | 0.00 | 34 | 1018.4 |
| 20260904142018 | 86 | 314 | 0.0 | 2.0 | 0.00 | 0.00 | 0.00 | 36 | 1018.5 |
| 20260904141514 | 86 | 314 | 0.0 | 3.0 | 0.00 | 0.00 | 0.00 | 38 | 1018.5 |
| 20260904141012 | 86 | 314 | 1.0 | 3.0 | 0.00 | 0.00 | 0.00 | 37 | 1018.6 |
| 20260904140511 | 85 | 314 | 0.0 | 2.0 | 0.00 | 0.00 | 0.00 | 40 | 1018.7 |
| 20260904140010 | 85 | 314 | 0.0 | 2.0 | 0.00 | 0.00 | 0.00 | 36 | 1018.8 |
| 20260904135512 | 85 | 314 | 0.0 | 2.0 | 0.00 | 0.00 | 0.00 | 38 | 1018.9 |
| 20260904135010 | 85 | 314 | 0.0 | 1.0 | 0.00 | 0.00 | 0.00 | 35 | 1018.9 |
| 20260904134516 | 84 | 314 | 0.0 | 3.0 | 0.00 | 0.00 | 0.00 | 36 | 1019.0 |
| 20260904134009 | 85 | 314 | 2.0 | 3.0 | 0.00 | 0.00 | 0.00 | 38 | 1019.1 |
| 20260904133507 | 85 | 314 | 1.0 | 2.0 | 0.00 | 0.00 | 0.00 | 38 | 1019.3 |
| 20260904133007 | 85 | 314 | 0.0 | 0.0 | 0.00 | 0.00 | 0.00 | 36 | 1019.3 |
| 20260904132505 | 84 | 314 | 0.0 | 0.0 | 0.00 | 0.00 | 0.00 | 36 | 1019.4 |
| 20260904132002 | 84 | 314 | 0.0 | 3.0 | 0.00 | 0.00 | 0.00 | 39 | 1019.5 |
| 20260904131501 | 83 | 314 | 0.0 | 3.0 | 0.00 | 0.00 | 0.00 | 38 | 1019.6 |
| 20260904131000 | 83 | 314 | 1.0 | 3.0 | 0.00 | 0.00 | 0.00 | 38 | 1019.7 |
| 20260904130559 | 83 | 314 | 2.0 | 3.0 | 0.00 | 0.00 | 0.00 | 41 | 1019.8 |
| 20260904130058 | 83 | 314 | 0.0 | 0.0 | 0.00 | 0.00 | 0.00 | 41 | 1019.8 |
| 20260904125557 | 83 | 314 | 0.0 | 0.0 | 0.00 | 0.00 | 0.00 | 42 | 1020.0 |
| 20260904125056 | 82 | 314 | 0.0 | 0.0 | 0.00 | 0.00 | 0.00 | 41 | 1020.0 |
| 20260904124603 | 82 | 314 | 0.0 | 0.0 | 0.00 | 0.00 | 0.00 | 43 | 1020.2 |
| 20260904124055 | 82 | 314 | 0.0 | 2.0 | 0.00 | 0.00 | 0.00 | 44 | 1020.3 |
| 20260904123555 | 82 | 314 | 0.0 | 2.0 | 0.00 | 0.00 | 0.00 | 43 | 1020.4 |
| 20260904123059 | 82 | 314 | 0.0 | 2.0 | 0.00 | 0.00 | 0.00 | 43 | 1020.5 |
| 20260904122553 | 82 | 314 | 0.0 | 2.0 | 0.00 | 0.00 | 0.00 | 45 | 1020.6 |
| 20260904122051 | 82 | 314 | 1.0 | 2.0 | 0.00 | 0.00 | 0.00 | 41 | 1020.7 |
| 20260904121553 | 81 | 314 | 0.0 | 2.0 | 0.00 | 0.00 | 0.00 | 40 | 1020.7 |
| 20260904121048 | 81 | 314 | 0.0 | 2.0 | 0.00 | 0.00 | 0.00 | 43 | 1020.9 |
| 20260904120548 | 81 | 314 | 0.0 | 3.0 | 0.00 | 0.00 | 0.00 | 44 | 1020.9 |
| 20260904120050 | 80 | 314 | 1.0 | 3.0 | 0.00 | 0.00 | 0.00 | 42 | 1021.0 |
| 20260904115548 | 80 | 314 | 1.0 | 3.0 | 0.00 | 0.00 | 0.00 | 43 | 1021.1 |
| 20260904115044 | 79 | 314 | 0.0 | 2.0 | 0.00 | 0.00 | 0.00 | 45 | 1021.2 |
| 20260904114544 | 79 | 314 | 0.0 | 2.0 | 0.00 | 0.00 | 0.00 | 44 | 1021.2 |
| 20260904114042 | 79 | 314 | 0.0 | 4.0 | 0.00 | 0.00 | 0.00 | 46 | 1021.3 |
| 20260904113540 | 79 | 318 | 0.0 | 4.0 | 0.00 | 0.00 | 0.00 | 45 | 1021.5 |
| 20260904113040 | 78 | 318 | 1.0 | 2.0 | 0.00 | 0.00 | 0.00 | 47 | 1021.6 |
| 20260904112537 | 78 | 318 | 0.0 | 3.0 | 0.00 | 0.00 | 0.00 | 47 | 1021.7 |
| 20260904112039 | 78 | 318 | 1.0 | 4.0 | 0.00 | 0.00 | 0.00 | 47 | 1021.8 |
| 20260904111540 | 77 | 318 | 2.0 | 4.0 | 0.00 | 0.00 | 0.00 | 49 | 1021.9 |
| 20260904111034 | 77 | 73 | 0.0 | 1.0 | 0.00 | 0.00 | 0.00 | 47 | 1022.0 |
| 20260904110533 | 77 | 73 | 0.0 | 1.0 | 0.00 | 0.00 | 0.00 | 48 | 1022.0 |
| 20260904110032 | 77 | 75 | 0.0 | 1.0 | 0.00 | 0.00 | 0.00 | 48 | 1022.2 |
| 20260904105532 | 77 | 75 | 0.0 | 4.0 | 0.00 | 0.00 | 0.00 | 51 | 1022.3 |
| 20260904105030 | 76 | 75 | 0.0 | 5.0 | 0.00 | 0.00 | 0.00 | 51 | 1022.5 |
| 20260904104527 | 76 | 324 | 2.0 | 5.0 | 0.00 | 0.00 | 0.00 | 51 | 1022.6 |
| 20260904104028 | 76 | 346 | 0.0 | 3.0 | 0.00 | 0.00 | 0.00 | 51 | 1022.6 |
| 20260904103529 | 76 | 359 | 0.0 | 3.0 | 0.00 | 0.00 | 0.00 | 49 | 1022.7 |
| 20260904103025 | 76 | 7 | 1.0 | 2.0 | 0.00 | 0.00 | 0.00 | 51 | 1022.8 |
| 20260904102525 | 75 | 16 | 0.0 | 4.0 | 0.00 | 0.00 | 0.00 | 48 | 1023.0 |
| 20260904102022 | 75 | 4 | 0.0 | 4.0 | 0.00 | 0.00 | 0.00 | 52 | 1023.0 |
| 20260904101521 | 75 | 82 | 0.0 | 3.0 | 0.00 | 0.00 | 0.00 | 51 | 1023.2 |
| 20260904101024 | 74 | 304 | 0.0 | 4.0 | 0.00 | 0.00 | 0.00 | 56 | 1023.2 |
| 20260904100520 | 74 | 304 | 2.0 | 4.0 | 0.00 | 0.00 | 0.00 | 53 | 1023.3 |
| 20260904100017 | 74 | 304 | 2.0 | 4.0 | 0.00 | 0.00 | 0.00 | 52 | 1023.4 |
| 20260904095521 | 73 | 304 | 0.0 | 4.0 | 0.00 | 0.00 | 0.00 | 49 | 1023.5 |
| 20260904095015 | 73 | 304 | 2.0 | 5.0 | 0.00 | 0.00 | 0.00 | 51 | 1023.5 |
| 20260904094528 | 73 | 304 | 2.0 | 5.0 | 0.00 | 0.00 | 0.00 | 56 | 1023.6 |
| 20260904094012 | 72 | 299 | 2.0 | 5.0 | 0.00 | 0.00 | 0.00 | 55 | 1023.6 |
| 20260904093511 | 72 | 295 | 1.0 | 5.0 | 0.00 | 0.00 | 0.00 | 58 | 1023.7 |
| 20260904093010 | 72 | 304 | 3.0 | 5.0 | 0.00 | 0.00 | 0.00 | 55 | 1023.8 |
| 20260904092512 | 71 | 304 | 4.0 | 6.0 | 0.00 | 0.00 | 0.00 | 56 | 1023.9 |
| 20260904092007 | 71 | 293 | 4.0 | 6.0 | 0.00 | 0.00 | 0.00 | 58 | 1023.9 |
| 20260904091507 | 71 | 304 | 4.0 | 6.0 | 0.00 | 0.00 | 0.00 | 57 | 1024.0 |
| 20260904091005 | 71 | 309 | 5.0 | 7.0 | 0.00 | 0.00 | 0.00 | 59 | 1024.0 |
| 20260904090503 | 70 | 299 | 4.0 | 6.0 | 0.00 | 0.00 | 0.00 | 59 | 1024.0 |
| 20260904090013 | 70 | 309 | 4.0 | 6.0 | 0.00 | 0.00 | 0.00 | 59 | 1024.1 |
| 20260904085501 | 70 | 309 | 4.0 | 6.0 | 0.00 | 0.00 | 0.00 | 60 | 1024.2 |
| 20260904085103 | 70 | 304 | 3.0 | 6.0 | 0.00 | 0.00 | 0.00 | 61 | 1024.3 |
| 20260904084600 | 69 | 304 | 4.0 | 6.0 | 0.00 | 0.00 | 0.00 | 61 | 1024.2 |
| 20260904084057 | 69 | 297 | 4.0 | 6.0 | 0.00 | 0.00 | 0.00 | 63 | 1024.3 |
| 20260904083556 | 69 | 318 | 3.0 | 5.0 | 0.00 | 0.00 | 0.00 | 62 | 1024.3 |
| 20260904083139 | 68 | 322 | 3.0 | 5.0 | 0.00 | 0.00 | 0.00 | 63 | 1024.3 |
| 20260904082553 | 68 | 309 | 2.0 | 5.0 | 0.00 | 0.00 | 0.00 | 63 | 1024.4 |
| 20260904082052 | 68 | 309 | 3.0 | 8.0 | 0.00 | 0.00 | 0.00 | 64 | 1024.5 |
| 20260904081552 | 68 | 309 | 4.0 | 8.0 | 0.00 | 0.00 | 0.00 | 64 | 1024.5 |
| 20260904081049 | 67 | 299 | 4.0 | 6.0 | 0.00 | 0.00 | 0.00 | 67 | 1024.5 |
| 20260904080547 | 67 | 309 | 3.0 | 6.0 | 0.00 | 0.00 | 0.00 | 65 | 1024.5 |
| 20260904080046 | 67 | 309 | 4.0 | 6.0 | 0.00 | 0.00 | 0.00 | 67 | 1024.5 |
| 20260904075546 | 66 | 314 | 4.0 | 8.0 | 0.00 | 0.00 | 0.00 | 65 | 1024.5 |
| 20260904075045 | 66 | 318 | 5.0 | 8.0 | 0.00 | 0.00 | 0.00 | 67 | 1024.6 |
| 20260904074543 | 66 | 309 | 4.0 | 6.0 | 0.00 | 0.00 | 0.00 | 69 | 1024.6 |
| 20260904074042 | 65 | 304 | 4.0 | 6.0 | 0.00 | 0.00 | 0.00 | 68 | 1024.7 |
| 20260904073541 | 65 | 314 | 3.0 | 6.0 | 0.00 | 0.00 | 0.00 | 68 | 1024.7 |
| 20260904073040 | 65 | 318 | 4.0 | 8.0 | 0.00 | 0.00 | 0.00 | 69 | 1024.7 |
| 20260904072539 | 64 | 304 | 4.0 | 8.0 | 0.00 | 0.00 | 0.00 | 71 | 1024.7 |
| 20260904072038 | 64 | 309 | 3.0 | 5.0 | 0.00 | 0.00 | 0.00 | 74 | 1024.8 |
| 20260904071545 | 64 | 309 | 4.0 | 5.0 | 0.00 | 0.00 | 0.00 | 74 | 1024.8 |
| 20260904071036 | 63 | 314 | 3.0 | 6.0 | 0.00 | 0.00 | 0.00 | 73 | 1024.8 |
| 20260904070536 | 63 | 309 | 4.0 | 6.0 | 0.00 | 0.00 | 0.00 | 74 | 1024.9 |
| 20260904070105 | 64 | 309 | 3.0 | 6.0 | 0.00 | 0.00 | 0.00 | 74 | 1025.1 |
| 20260904065532 | 64 | 309 | 4.0 | 6.0 | 0.00 | 0.00 | 0.00 | 73 | 1025.1 |
| 20260904065034 | 64 | 309 | 3.0 | 5.0 | 0.00 | 0.00 | 0.00 | 73 | 1025.2 |
| 20260904064530 | 64 | 314 | 3.0 | 5.0 | 0.00 | 0.00 | 0.00 | 72 | 1025.2 |
| 20260904064029 | 64 | 285 | 1.0 | 4.0 | 0.00 | 0.00 | 0.00 | 73 | 1025.2 |
| 20260904063533 | 64 | 241 | 1.0 | 2.0 | 0.00 | 0.00 | 0.00 | 74 | 1025.2 |
| 20260904063033 | 64 | 241 | 0.0 | 0.0 | 0.00 | 0.00 | 0.00 | 78 | 1025.2 |
| 20260904062629 | 64 | 241 | 0.0 | 0.0 | 0.00 | 0.00 | 0.00 | 78 | 1025.3 |
| 20260904062028 | 63 | 241 | 0.0 | 0.0 | 0.00 | 0.00 | 0.00 | 78 | 1025.3 |
| 20260904061530 | 62 | 241 | 0.0 | 0.0 | 0.00 | 0.00 | 0.00 | 78 | 1025.3 |
| 20260904061026 | 62 | 241 | 0.0 | 0.0 | 0.00 | 0.00 | 0.00 | 79 | 1025.3 |
| 20260904060526 | 62 | 241 | 0.0 | 0.0 | 0.00 | 0.00 | 0.00 | 80 | 1025.4 |
| 20260904060030 | 62 | 241 | 0.0 | 0.0 | 0.00 | 0.00 | 0.00 | 80 | 1025.4 |
| 20260904055524 | 62 | 241 | 0.0 | 0.0 | 0.00 | 0.00 | 0.00 | 82 | 1025.3 |
| 20260904055022 | 61 | 241 | 0.0 | 0.0 | 0.00 | 0.00 | 0.00 | 81 | 1025.3 |
| 20260904054522 | 61 | 241 | 0.0 | 0.0 | 0.00 | 0.00 | 0.00 | 80 | 1025.4 |
| 20260904054021 | 60 | 241 | 0.0 | 0.0 | 0.00 | 0.00 | 0.00 | 81 | 1025.4 |
| 20260904053522 | 60 | 241 | 0.0 | 0.0 | 0.00 | 0.00 | 0.00 | 80 | 1025.4 |
| 20260904053039 | 60 | 241 | 0.0 | 0.0 | 0.00 | 0.00 | 0.00 | 81 | 1025.5 |
| 20260904052523 | 59 | 241 | 0.0 | 0.0 | 0.00 | 0.00 | 0.00 | 83 | 1025.5 |
| 20260904052018 | 59 | 241 | 0.0 | 0.0 | 0.00 | 0.00 | 0.00 | 82 | 1025.5 |
| 20260904051524 | 59 | 241 | 0.0 | 0.0 | 0.00 | 0.00 | 0.00 | 82 | 1025.4 |
| 20260904051015 | 59 | 241 | 0.0 | 0.0 | 0.00 | 0.00 | 0.00 | 81 | 1025.4 |
| 20260904050514 | 59 | 241 | 0.0 | 0.0 | 0.00 | 0.00 | 0.00 | 81 | 1025.3 |
| 20260904050014 | 59 | 241 | 0.0 | 0.0 | 0.00 | 0.00 | 0.00 | 80 | 1025.3 |
| 20260904045514 | 59 | 241 | 0.0 | 0.0 | 0.00 | 0.00 | 0.00 | 80 | 1025.3 |
| 20260904045013 | 59 | 241 | 0.0 | 0.0 | 0.00 | 0.00 | 0.00 | 80 | 1025.4 |
| 20260904044512 | 59 | 241 | 0.0 | 0.0 | 0.00 | 0.00 | 0.00 | 80 | 1025.5 |
| 20260904044011 | 59 | 241 | 0.0 | 0.0 | 0.00 | 0.00 | 0.00 | 79 | 1025.4 |
| 20260904043511 | 59 | 241 | 0.0 | 0.0 | 0.00 | 0.00 | 0.00 | 80 | 1025.5 |
| 20260904043010 | 60 | 241 | 0.0 | 0.0 | 0.00 | 0.00 | 0.00 | 80 | 1025.4 |
| 20260904042512 | 60 | 241 | 0.0 | 0.0 | 0.00 | 0.00 | 0.00 | 79 | 1025.3 |
| 20260904042009 | 60 | 241 | 0.0 | 0.0 | 0.00 | 0.00 | 0.00 | 79 | 1025.3 |
| 20260904041508 | 60 | 241 | 0.0 | 0.0 | 0.00 | 0.00 | 0.00 | 79 | 1025.2 |
| 20260904041007 | 60 | 241 | 0.0 | 0.0 | 0.00 | 0.00 | 0.00 | 78 | 1025.3 |
| 20260904040507 | 60 | 241 | 0.0 | 0.0 | 0.00 | 0.00 | 0.00 | 79 | 1025.4 |
| 20260904040007 | 60 | 241 | 0.0 | 0.0 | 0.00 | 0.00 | 0.00 | 79 | 1025.4 |
| 20260904035506 | 60 | 241 | 0.0 | 0.0 | 0.00 | 0.00 | 0.00 | 79 | 1025.4 |
| 20260904035004 | 60 | 241 | 0.0 | 0.0 | 0.00 | 0.00 | 0.00 | 79 | 1025.4 |
| 20260904034505 | 61 | 241 | 0.0 | 0.0 | 0.00 | 0.00 | 0.00 | 79 | 1025.4 |
| 20260904034004 | 61 | 241 | 0.0 | 0.0 | 0.00 | 0.00 | 0.00 | 78 | 1025.4 |
| 20260904033505 | 61 | 241 | 0.0 | 0.0 | 0.00 | 0.00 | 0.00 | 78 | 1025.4 |
| 20260904033005 | 61 | 241 | 0.0 | 0.0 | 0.00 | 0.00 | 0.00 | 78 | 1025.4 |
| 20260904032505 | 61 | 241 | 0.0 | 0.0 | 0.00 | 0.00 | 0.00 | 78 | 1025.4 |
| 20260904032003 | 61 | 241 | 0.0 | 0.0 | 0.00 | 0.00 | 0.00 | 78 | 1025.4 |
| 20260904031503 | 61 | 241 | 0.0 | 0.0 | 0.00 | 0.00 | 0.00 | 78 | 1025.4 |
| 20260904031003 | 61 | 241 | 0.0 | 0.0 | 0.00 | 0.00 | 0.00 | 78 | 1025.5 |
| 20260904030501 | 61 | 241 | 0.0 | 0.0 | 0.00 | 0.00 | 0.00 | 78 | 1025.5 |
| 20260904030001 | 61 | 241 | 0.0 | 0.0 | 0.00 | 0.00 | 0.00 | 81 | 1025.4 |
| 20260904025600 | 61 | 241 | 0.0 | 0.0 | 0.00 | 0.00 | 0.00 | 80 | 1025.4 |
| 20260904025059 | 62 | 241 | 0.0 | 0.0 | 0.00 | 0.00 | 0.00 | 77 | 1025.3 |
| 20260904024559 | 62 | 241 | 0.0 | 0.0 | 0.00 | 0.00 | 0.00 | 76 | 1025.4 |
| 20260904024100 | 62 | 241 | 0.0 | 0.0 | 0.00 | 0.00 | 0.00 | 77 | 1025.4 |
| 20260904023557 | 62 | 241 | 0.0 | 0.0 | 0.00 | 0.00 | 0.00 | 78 | 1025.5 |
| 20260904023058 | 62 | 241 | 0.0 | 0.0 | 0.00 | 0.00 | 0.00 | 78 | 1025.5 |
| 20260904022558 | 62 | 241 | 0.0 | 0.0 | 0.00 | 0.00 | 0.00 | 78 | 1025.5 |
| 20260904022056 | 62 | 241 | 0.0 | 0.0 | 0.00 | 0.00 | 0.00 | 78 | 1025.6 |
| 20260904021556 | 62 | 241 | 0.0 | 0.0 | 0.00 | 0.00 | 0.00 | 78 | 1025.7 |
| 20260904021054 | 62 | 241 | 0.0 | 0.0 | 0.00 | 0.00 | 0.00 | 77 | 1025.7 |
| 20260904020554 | 62 | 241 | 0.0 | 0.0 | 0.00 | 0.00 | 0.00 | 76 | 1025.7 |
| 20260904020053 | 62 | 241 | 0.0 | 0.0 | 0.00 | 0.00 | 0.00 | 76 | 1025.7 |
| 20260904015552 | 62 | 241 | 0.0 | 0.0 | 0.00 | 0.00 | 0.00 | 75 | 1025.7 |
| 20260904015052 | 62 | 241 | 0.0 | 0.0 | 0.00 | 0.00 | 0.00 | 74 | 1025.6 |
| 20260904014557 | 62 | 241 | 0.0 | 0.0 | 0.00 | 0.00 | 0.00 | 74 | 1025.7 |
| 20260904014052 | 63 | 241 | 0.0 | 0.0 | 0.00 | 0.00 | 0.00 | 72 | 1025.6 |
| 20260904013550 | 63 | 241 | 0.0 | 0.0 | 0.00 | 0.00 | 0.00 | 73 | 1025.7 |
| 20260904013050 | 62 | 241 | 0.0 | 0.0 | 0.00 | 0.00 | 0.00 | 73 | 1025.7 |
| 20260904012550 | 63 | 241 | 0.0 | 0.0 | 0.00 | 0.00 | 0.00 | 73 | 1025.8 |
| 20260904012050 | 63 | 241 | 0.0 | 0.0 | 0.00 | 0.00 | 0.00 | 72 | 1025.8 |
| 20260904011549 | 63 | 241 | 0.0 | 0.0 | 0.00 | 0.00 | 0.00 | 73 | 1025.8 |
| 20260904011048 | 63 | 241 | 0.0 | 0.0 | 0.00 | 0.00 | 0.00 | 73 | 1025.7 |
| 20260904010548 | 63 | 241 | 0.0 | 0.0 | 0.00 | 0.00 | 0.00 | 73 | 1025.7 |
| 20260904010049 | 63 | 241 | 0.0 | 0.0 | 0.00 | 0.00 | 0.00 | 73 | 1025.7 |
| 20260904005547 | 63 | 241 | 0.0 | 0.0 | 0.00 | 0.00 | 0.00 | 73 | 1025.7 |
| 20260904005046 | 63 | 241 | 0.0 | 0.0 | 0.00 | 0.00 | 0.00 | 73 | 1025.7 |
| 20260904004546 | 64 | 241 | 0.0 | 0.0 | 0.00 | 0.00 | 0.00 | 74 | 1025.8 |
| 20260904004046 | 63 | 241 | 0.0 | 0.0 | 0.00 | 0.00 | 0.00 | 73 | 1025.8 |
| 20260904003545 | 64 | 241 | 0.0 | 0.0 | 0.00 | 0.00 | 0.00 | 74 | 1025.8 |
| 20260904003045 | 64 | 241 | 0.0 | 0.0 | 0.00 | 0.00 | 0.00 | 74 | 1025.8 |
| 20260904002548 | 64 | 241 | 0.0 | 0.0 | 0.00 | 0.00 | 0.00 | 74 | 1025.8 |
| 20260904002044 | 64 | 241 | 0.0 | 0.0 | 0.00 | 0.00 | 0.00 | 74 | 1025.9 |
| 20260904001546 | 64 | 241 | 0.0 | 0.0 | 0.00 | 0.00 | 0.00 | 75 | 1026.0 |
| 20260904001042 | 64 | 241 | 0.0 | 0.0 | 0.00 | 0.00 | 0.00 | 74 | 1026.0 |
| 20260904000541 | 64 | 241 | 0.0 | 0.0 | 0.00 | 0.00 | 0.00 | 74 | 1026.0 |
| 20260904000050 | 64 | 241 | 0.0 | 0.0 | 0.00 | 0.00 | 0.00 | 73 | 1026.1 |
| 20260903235540 | 64 | 241 | 0.0 | 0.0 | 0.00 | 0.00 | 0.00 | 72 | 1026.0 |
| 20260903235042 | 64 | 241 | 0.0 | 0.0 | 0.00 | 0.00 | 0.00 | 73 | 1026.1 |
| 20260903234540 | 64 | 241 | 0.0 | 0.0 | 0.00 | 0.00 | 0.00 | 73 | 1026.2 |
| 20260903234039 | 64 | 241 | 0.0 | 0.0 | 0.00 | 0.00 | 0.00 | 73 | 1026.3 |
| 20260903233547 | 64 | 241 | 0.0 | 0.0 | 0.00 | 0.00 | 0.00 | 72 | 1026.4 |
| 20260903233038 | 64 | 241 | 0.0 | 0.0 | 0.00 | 0.00 | 0.00 | 71 | 1026.3 |
| 20260903232539 | 65 | 241 | 0.0 | 0.0 | 0.00 | 0.00 | 0.00 | 71 | 1026.4 |
| 20260903232039 | 64 | 241 | 0.0 | 0.0 | 0.00 | 0.00 | 0.00 | 71 | 1026.4 |
| 20260903231542 | 64 | 241 | 0.0 | 0.0 | 0.00 | 0.00 | 0.00 | 72 | 1026.5 |
| 20260903231037 | 64 | 241 | 0.0 | 0.0 | 0.00 | 0.00 | 0.00 | 71 | 1026.5 |
| 20260903230538 | 64 | 241 | 0.0 | 0.0 | 0.00 | 0.00 | 0.00 | 71 | 1026.6 |
| 20260903230046 | 64 | 241 | 0.0 | 0.0 | 0.00 | 0.00 | 0.00 | 70 | 1026.6 |
| 20260903225538 | 64 | 241 | 0.0 | 0.0 | 0.00 | 0.00 | 0.00 | 71 | 1026.6 |
| 20260903225036 | 64 | 241 | 0.0 | 0.0 | 0.00 | 0.00 | 0.00 | 71 | 1026.4 |
| 20260903224537 | 65 | 241 | 0.0 | 0.0 | 0.00 | 0.00 | 0.00 | 70 | 1026.6 |
| 20260903224037 | 65 | 241 | 0.0 | 0.0 | 0.00 | 0.00 | 0.00 | 70 | 1026.6 |
| 20260903223541 | 65 | 241 | 0.0 | 0.0 | 0.00 | 0.00 | 0.00 | 67 | 1026.6 |
| 20260903223035 | 65 | 241 | 0.0 | 0.0 | 0.00 | 0.00 | 0.00 | 68 | 1026.6 |
| 20260903222534 | 64 | 241 | 0.0 | 0.0 | 0.00 | 0.00 | 0.00 | 67 | 1026.5 |
| 20260903222037 | 64 | 241 | 0.0 | 0.0 | 0.00 | 0.00 | 0.00 | 71 | 1026.4 |
| 20260903221533 | 65 | 241 | 0.0 | 0.0 | 0.00 | 0.00 | 0.00 | 70 | 1026.3 |
| 20260903221031 | 65 | 241 | 0.0 | 3.0 | 0.00 | 0.00 | 0.00 | 72 | 1026.3 |
| 20260903220530 | 65 | 241 | 1.0 | 3.0 | 0.00 | 0.00 | 0.00 | 71 | 1026.3 |
| 20260903220029 | 66 | 241 | 0.0 | 0.0 | 0.00 | 0.00 | 0.00 | 68 | 1026.1 |
| 20260903215529 | 66 | 241 | 0.0 | 1.0 | 0.00 | 0.00 | 0.00 | 68 | 1026.2 |
| 20260903215028 | 66 | 241 | 0.0 | 1.0 | 0.00 | 0.00 | 0.00 | 65 | 1026.1 |
| 20260903214531 | 66 | 241 | 0.0 | 1.0 | 0.00 | 0.00 | 0.00 | 64 | 1026.1 |
| 20260903214028 | 66 | 241 | 0.0 | 2.0 | 0.00 | 0.00 | 0.00 | 65 | 1026.1 |
| 20260903213528 | 66 | 241 | 0.0 | 2.0 | 0.00 | 0.00 | 0.00 | 64 | 1026.1 |
| 20260903213039 | 66 | 241 | 0.0 | 3.0 | 0.00 | 0.00 | 0.00 | 64 | 1026.1 |
| 20260903212534 | 66 | 241 | 1.0 | 3.0 | 0.00 | 0.00 | 0.00 | 65 | 1026.2 |